WetterOnline ( https://www.wetteronline.de )

Wetter aktuell Bamberg

Aktuelles Wetter: Bamberg (243m)

6-stündlich | Neueste Meldungen
Ortszeit Temperatur Wetter
Mi, 05.10. 8:00 3.8° C wolkig
Mi, 05.10. 2:00 5.6° C wolkig
Di, 04.10. 20:00 8.4° C wolkenlos
Di, 04.10. 14:00 15.5° C wolkig
Di, 04.10. 8:00 6.5° C Nebel
Di, 04.10. 2:00 5.0° C Nebel
Mo, 03.10. 20:00 10.0° C bewölkt
Mo, 03.10. 14:00 13.8° C bewölkt
Ortszeit Temperatur Wetter
Mi, 05.10. 9:30 10.2° C wolkig
Mi, 05.10. 9:20 10.2° C wolkig
Mi, 05.10. 9:10 9.9° C bewölkt
Mi, 05.10. 9:00 7.8° C leicht bewölkt
Mi, 05.10. 8:50 7.8° C leicht bewölkt
Mi, 05.10. 8:40 7.1° C leicht bewölkt
Mi, 05.10. 8:30 5.6° C wolkig
Mi, 05.10. 8:00 3.8° C wolkig
Mi, 05.10. 7:30 3.7° C wolkig
Mi, 05.10. 7:00 3.8° C Nebel
Mi, 05.10. 6:30 4.1° C Nebel
Ortszeit Relative Feuchte Sichtweite
Mi, 05.10. 8:00 99% 10 km
Mi, 05.10. 2:00 99% 24 km
Di, 04.10. 20:00 97% 23 km
Di, 04.10. 14:00 65% 50 km
Di, 04.10. 8:00 100% 7 km
Di, 04.10. 2:00 100% 100 m
Mo, 03.10. 20:00 95% 30 km
Mo, 03.10. 14:00 68% 50 km
Ortszeit Relative Feuchte Sichtweite
Mi, 05.10. 9:30 87% 30 km
Mi, 05.10. 9:20 87% -
Mi, 05.10. 9:10 89% -
Mi, 05.10. 9:00 96% 16 km
Mi, 05.10. 8:50 96% -
Mi, 05.10. 8:40 96% -
Mi, 05.10. 8:30 97% 14 km
Mi, 05.10. 8:00 99% 10 km
Mi, 05.10. 7:30 99% 5.0 km
Mi, 05.10. 7:00 99% 3.8 km
Mi, 05.10. 6:30 99% 8 km
Ortszeit Niederschlagsmenge Niederschlagsart
Mi, 05.10. 8:00 0.0 l/m2 in 12 Std. -
Mi, 05.10. 2:00 0.0 l/m2 in 6 Std. -
Di, 04.10. 20:00 0.0 l/m2 in 12 Std. -
Di, 04.10. 14:00 0.0 l/m2 in 6 Std. -
Di, 04.10. 8:00 0.1 l/m2 in 12 Std. -
Di, 04.10. 2:00 0.0 l/m2 in 6 Std. -
Mo, 03.10. 20:00 0.0 l/m2 in 12 Std. -
Mo, 03.10. 14:00 0.0 l/m2 in 6 Std. -
Ortszeit Niederschlagsmenge Niederschlagsart
Mi, 05.10. 9:30 0.0 l/m2 in 1 Std. -
Mi, 05.10. 9:20 keine Meldung -
Mi, 05.10. 9:10 keine Meldung -
Mi, 05.10. 9:00 0.0 l/m2 in 1 Std. -
Mi, 05.10. 8:50 keine Meldung -
Mi, 05.10. 8:40 keine Meldung -
Mi, 05.10. 8:30 0.0 l/m2 in 1 Std. -
Mi, 05.10. 8:00 0.0 l/m2 in 1 Std. -
Mi, 05.10. 7:30 0.0 l/m2 in 1 Std. -
Mi, 05.10. 7:00 0.0 l/m2 in 1 Std. -
Mi, 05.10. 6:30 0.0 l/m2 in 1 Std. -
Ortszeit Stärke Spitze Richtung
km/h Bft. km/h Grad Sektor
Mi, 05.10. 8:00 2 1 13 120° SO
Mi, 05.10. 2:00 4 1 11 140° SO
Di, 04.10. 20:00 2 1 15 150° SO
Di, 04.10. 14:00 7 2 18 150° SO
Di, 04.10. 8:00 4 1 7 140° SO
Di, 04.10. 2:00 2 1 6 110° O
Mo, 03.10. 20:00 4 1 22 140° SO
Mo, 03.10. 14:00 7 2 22 300° NW
Ortszeit Stärke Spitze Richtung
km/h Bft. km/h Grad Sektor
Mi, 05.10. 9:30 6 1 11 160° S
Mi, 05.10. 9:20 6 1 - 160° S
Mi, 05.10. 9:10 4 1 - 150° SO
Mi, 05.10. 9:00 4 1 7 180° S
Mi, 05.10. 8:50 4 1 - 180° S
Mi, 05.10. 8:40 4 1 - 190° S
Mi, 05.10. 8:30 4 1 4 110° O
Mi, 05.10. 8:00 2 1 4 120° SO
Mi, 05.10. 7:30 4 1 4 200° S
Mi, 05.10. 7:00 0 0 4 - -
Mi, 05.10. 6:30 0 0 4 - -
Ortszeit Untergrenze Bedeckung Gattung
total tief tief mittel hoch
Mi, 05.10. 8:00 9000 m 8/8 0/8 - - -
Mi, 05.10. 2:00 9000 m 8/8 0/8 - - -
Di, 04.10. 20:00 - 0/8 0/8 - - -
Di, 04.10. 14:00 6900 m 7/8 2/8 - - -
Di, 04.10. 8:00 30 m 8/8 8/8 - - -
Di, 04.10. 2:00 <30 m 8/8 0/8 - - -
Mo, 03.10. 20:00 1500 m 7/8 7/8 - - -
Mo, 03.10. 14:00 1170 m 7/8 7/8 - - -
Ortszeit Bedeckungsgrad in Achtel und Wolkenuntergrenze
Mi, 05.10. 9:30 6(9000m) 7(10500m)
Mi, 05.10. 9:20 6(9000m) 7(10500m)
Mi, 05.10. 9:10 7
Mi, 05.10. 9:00 5(10500m)
Mi, 05.10. 8:50 5(10500m)
Mi, 05.10. 8:40 4
Mi, 05.10. 8:30 8(10500m)
Mi, 05.10. 8:00 4(9000m) 6(9000m) 8(10500m)
Mi, 05.10. 7:30 7(10500m)
Mi, 05.10. 7:00 1(10500m) 4(12000m)
Mi, 05.10. 6:30 2(9000m) 8(10500m)
Ortszeit Luftdruck NN (hPa) Tendenz (hPa in 3 Std.)
Mi, 05.10. 8:00 1023 0,0
Mi, 05.10. 2:00 1024 - 1,0
Di, 04.10. 20:00 1024 - 0,2
Di, 04.10. 14:00 1024 - 0,8
Di, 04.10. 8:00 1025 - 0,1
Di, 04.10. 2:00 1026 - 0,6
Mo, 03.10. 20:00 1026 - 0,2
Mo, 03.10. 14:00 1027 - 0,3
Ortszeit Luftdruck NN (hPa) Tendenz (hPa in 3 Std.)
Mi, 05.10. 9:30 1023 + 0,9
Mi, 05.10. 9:20 1023 keine Meldung
Mi, 05.10. 9:10 1023 keine Meldung
Mi, 05.10. 9:00 1023 + 0,8
Mi, 05.10. 8:50 1023 keine Meldung
Mi, 05.10. 8:40 1023 keine Meldung
Mi, 05.10. 8:30 1023 + 0,2
Mi, 05.10. 8:00 1023 0,0
Mi, 05.10. 7:30 1023 - 0,1
Mi, 05.10. 7:00 1023 - 0,8
Mi, 05.10. 6:30 1023 - 0,6
Ortszeit Schneehöhe (cm)
Mi, 05.10. 8:00 0
Mi, 05.10. 2:00 0
Di, 04.10. 20:00 0
Di, 04.10. 14:00 0
Di, 04.10. 8:00 0
Di, 04.10. 2:00 0
Mo, 03.10. 20:00 0
Mo, 03.10. 14:00 0
Ortszeit Schneehöhe (cm)
Mi, 05.10. 9:30 0
Mi, 05.10. 9:20 0
Mi, 05.10. 9:10 0
Mi, 05.10. 9:00 0
Mi, 05.10. 8:50 0
Mi, 05.10. 8:40 0
Mi, 05.10. 8:30 0
Mi, 05.10. 8:00 0
Mi, 05.10. 7:30 0
Mi, 05.10. 7:00 0
Mi, 05.10. 6:30 0
Link zu dieser Seite / Seite empfehlen

Das Wetter in ...